Tracking 23757 objects as of 24-Oct-2021
HD Live streaming from Space Station
objects crossing your sky now

DELTA 1 DEB

Track DELTA 1 DEB now!
10-day predictions


NORAD ID: 8682
Int'l Code: 1975-004J
Perigee: 725.4 km
Apogee: 951.3 km
Inclination: 97.7 °
Period: 101.5 minutes
Semi major axis: 7209 km
RCS: 0.0835 m2 (small)
Launch date: January 22, 1975
Source: United States (US)
Launch site: AIR FORCE WESTERN TEST RANGE (AFWTR)

Note: This is SATELLITE DEBRIS
aabbcc
Your satellite tracking list
Your tracking list is empty




NASA's NSSDC Master Catalog

Two Line Element Set (TLE):
1 08682U 75004J   21297.53412003  .00000129  00000-0  70395-4 0  9999
2 08682  97.7394 146.8142 0156661  61.7441 299.9450 14.18273392409628
Source of the keplerian elements: AFSPC